User: anonymous   Login
Location: Newark
(51.4331°N, 13.2167°E)
Time: 08:45:09
(UTC+00:00)
Language:

LightSail 2 - Orbit

View from above orbital plane
View from above orbital plane
View from above satellite
View from above satellite

Ground track
Ground track

The orbit data is extracted from the following two-line orbital elements,

1 44420U 19036AC  20157.73592990 +.00005017 +00000-0 +10771-2 0  9993
2 44420 024.0076 181.8504 0020670 026.0640 334.0889 14.55594291048614
Epoch (UTC): 05 June 2020 17:39:44
Eccentricity: 0.0020670
inclination: 24.0076°
perigee height: 693 km
apogee height: 722 km
right ascension of ascending node: 181.8504°
argument of perigee: 26.0640°
revolutions per day: 14.55594291
mean anomaly at epoch: 334.0889°
orbit number at epoch: 4861

The dashed part of the orbit path shows where the satellite is in the earth's shadow,  

DLR